When you browse on this site, cookies collect data to enhance your experience and personalize the content and advertising you see.
Visit our Privacy Policy to learn more. By continuing to use the site, you agree to this use of cookies and data.
  • în România
  • Lista ţărilor
  • Pe 7 zile
  • Temperatura apei
  • Meteo pe hartă
  • Widget-uri
  • user-avatar
    Intrare

    Meteo pe oră la Inverness

    Astăzi, 22 Februarie, Sâmbătă

    Timp Temperatura Precipitaţii Vânt Presiune Umiditate
    00:00 +5°C° 0 mm 4 m/s 736 mmHg 92%
    01:00 +3°C° 1.6 mm 6 m/s 736 mmHg 91%
    02:00 +2°C° 1.6 mm 8 m/s 736 mmHg 89%
    03:00 +1°C° 1.6 mm 10 m/s 736 mmHg 87%
    04:00 0°C° 0.9 mm 10 m/s 736 mmHg 83%
    05:00 0°C° 0.9 mm 10 m/s 737 mmHg 79%
    06:00 -2°C° 0.9 mm 10 m/s 738 mmHg 75%
    07:00 -2°C° 0.2 mm 10 m/s 738 mmHg 76%
    08:00 -2°C° 0.2 mm 10 m/s 739 mmHg 76%
    09:00 -2°C° 0.2 mm 11 m/s 739 mmHg 77%
    10:00 -2°C° 0.2 mm 11 m/s 740 mmHg 74%
    11:00 -1°C° 0.2 mm 12 m/s 741 mmHg 71%
    12:00 -1°C° 0.2 mm 13 m/s 742 mmHg 68%
    13:00 -1°C° 0.1 mm 13 m/s 742 mmHg 71%
    14:00 -1°C° 0.1 mm 13 m/s 742 mmHg 74%
    15:00 -1°C° 0.1 mm 13 m/s 743 mmHg 77%
    16:00 -2°C° 0.3 mm 12 m/s 743 mmHg 80%
    17:00 -2°C° 0.3 mm 12 m/s 744 mmHg 82%
    18:00 -2°C° 0.3 mm 11 m/s 745 mmHg 85%
    19:00 -2°C° 0.2 mm 11 m/s 745 mmHg 83%
    20:00 -2°C° 0.2 mm 10 m/s 746 mmHg 82%
    21:00 -3°C° 0.2 mm 10 m/s 746 mmHg 80%
    22:00 -3°C° 0 mm 10 m/s 747 mmHg 80%
    23:00 -3°C° 0 mm 9 m/s 747 mmHg 80%

    Mâine, 23 Februarie, Duminică

    Timp Temperatura Precipitaţii Vânt Presiune Umiditate
    00:00 -3°C° 0 mm 9 m/s 748 mmHg 79%
    01:00 -3°C° 0 mm 9 m/s 747 mmHg 80%
    02:00 -2°C° 0 mm 8 m/s 747 mmHg 80%
    03:00 -2°C° 0 mm 8 m/s 747 mmHg 80%
    04:00 -2°C° 0 mm 8 m/s 747 mmHg 79%
    05:00 -2°C° 0 mm 7 m/s 747 mmHg 79%
    06:00 -2°C° 0 mm 7 m/s 747 mmHg 79%
    07:00 -2°C° 0.1 mm 7 m/s 747 mmHg 80%
    08:00 -2°C° 0.1 mm 7 m/s 747 mmHg 81%
    09:00 -1°C° 0.1 mm 7 m/s 747 mmHg 82%
    10:00 0°C° 0.1 mm 7 m/s 748 mmHg 81%
    11:00 +2°C° 0.1 mm 7 m/s 749 mmHg 80%
    12:00 +3°C° 0.1 mm 7 m/s 749 mmHg 79%
    13:00 +3°C° 0 mm 7 m/s 751 mmHg 76%
    14:00 +3°C° 0 mm 7 m/s 752 mmHg 74%
    15:00 +3°C° 0 mm 6 m/s 753 mmHg 71%
    16:00 +2°C° 0 mm 5 m/s 754 mmHg 76%
    17:00 +1°C° 0 mm 4 m/s 756 mmHg 80%
    18:00 +1°C° 0 mm 3 m/s 757 mmHg 85%
    19:00 0°C° 0 mm 3 m/s 757 mmHg 85%
    20:00 0°C° 0 mm 3 m/s 757 mmHg 84%
    21:00 0°C° 0 mm 3 m/s 758 mmHg 84%
    22:00 +1°C° 0 mm 2 m/s 757 mmHg 83%
    23:00 +1°C° 0 mm 2 m/s 757 mmHg 82%

    Poimâine, 24 Februarie, Luni

    Timp Temperatura Precipitaţii Vânt Presiune Umiditate
    00:00 +2°C° 0 mm 1 m/s 757 mmHg 80%
    01:00 +2°C° 0 mm 1 m/s 756 mmHg 82%
    02:00 +1°C° 0 mm 2 m/s 754 mmHg 84%
    03:00 +1°C° 0 mm 2 m/s 753 mmHg 86%
    04:00 0°C° 0.5 mm 3 m/s 751 mmHg 88%
    05:00 -1°C° 0.5 mm 5 m/s 749 mmHg 90%
    06:00 -2°C° 0.5 mm 7 m/s 747 mmHg 92%
    07:00 -2°C° 1 mm 7 m/s 745 mmHg 91%
    08:00 -1°C° 1 mm 7 m/s 742 mmHg 89%
    09:00 -1°C° 1 mm 8 m/s 739 mmHg 88%
    10:00 0°C° 0.4 mm 7 m/s 737 mmHg 88%
    11:00 +2°C° 0.4 mm 5 m/s 734 mmHg 88%
    12:00 +4°C° 0.4 mm 4 m/s 732 mmHg 89%
    13:00 +4°C° 0.3 mm 4 m/s 730 mmHg 90%
    14:00 +4°C° 0.3 mm 4 m/s 729 mmHg 91%
    15:00 +4°C° 0.3 mm 3 m/s 727 mmHg 92%
    16:00 +3°C° 0.7 mm 4 m/s 727 mmHg 93%
    17:00 +3°C° 0.7 mm 4 m/s 727 mmHg 95%
    18:00 +1°C° 0.7 mm 5 m/s 727 mmHg 96%
    19:00 +1°C° 0.8 mm 6 m/s 729 mmHg 97%
    20:00 0°C° 0.8 mm 8 m/s 730 mmHg 97%
    21:00 0°C° 0.8 mm 9 m/s 732 mmHg 97%
    22:00 0°C° 0.9 mm 9 m/s 733 mmHg 97%
    23:00 -1°C° 0.9 mm 8 m/s 735 mmHg 97%

    25 Februarie, Marţi

    Timp Temperatura Precipitaţii Vânt Presiune Umiditate
    00:00 -1°C° 0.9 mm 7 m/s 736 mmHg 97%
    01:00 -1°C° 0.3 mm 6 m/s 737 mmHg 95%
    02:00 0°C° 0.3 mm 5 m/s 738 mmHg 93%
    03:00 -1°C° 0.3 mm 4 m/s 739 mmHg 92%
    04:00 -1°C° 0.1 mm 4 m/s 739 mmHg 92%
    05:00 0°C° 0.1 mm 3 m/s 739 mmHg 93%
    06:00 0°C° 0.1 mm 3 m/s 739 mmHg 94%
    07:00 0°C° 0.1 mm 3 m/s 739 mmHg 93%
    08:00 0°C° 0.1 mm 3 m/s 739 mmHg 92%
    09:00 0°C° 0.1 mm 3 m/s 739 mmHg 92%
    10:00 +1°C° 0 mm 3 m/s 739 mmHg 89%
    11:00 +2°C° 0 mm 3 m/s 739 mmHg 87%
    12:00 +2°C° 0 mm 3 m/s 739 mmHg 84%
    13:00 +2°C° 0.1 mm 3 m/s 739 mmHg 84%
    14:00 +3°C° 0.1 mm 3 m/s 739 mmHg 84%
    15:00 +4°C° 0.1 mm 2 m/s 739 mmHg 84%
    16:00 +3°C° 0.1 mm 2 m/s 739 mmHg 87%
    17:00 +2°C° 0.1 mm 2 m/s 739 mmHg 90%
    18:00 +1°C° 0.1 mm 2 m/s 738 mmHg 93%
    19:00 -1°C° 0 mm 2 m/s 739 mmHg 93%
    20:00 -1°C° 0 mm 2 m/s 739 mmHg 93%
    21:00 -2°C° 0 mm 2 m/s 739 mmHg 93%
    22:00 -2°C° 0 mm 2 m/s 740 mmHg 93%
    23:00 -2°C° 0 mm 2 m/s 740 mmHg 93%

    26 Februarie, Miercuri

    Timp Temperatura Precipitaţii Vânt Presiune Umiditate
    00:00 -2°C° 0 mm 2 m/s 740 mmHg 93%
    01:00 -2°C° 0 mm 2 m/s 741 mmHg 93%
    02:00 -2°C° 0 mm 3 m/s 741 mmHg 94%
    03:00 -2°C° 0 mm 3 m/s 741 mmHg 94%
    04:00 -2°C° 0 mm 3 m/s 742 mmHg 93%
    05:00 -2°C° 0 mm 3 m/s 742 mmHg 92%
    06:00 -3°C° 0 mm 4 m/s 743 mmHg 91%
    07:00 -2°C° 0 mm 4 m/s 743 mmHg 89%
    08:00 -2°C° 0 mm 4 m/s 744 mmHg 87%
    09:00 -1°C° 0 mm 4 m/s 744 mmHg 85%
    10:00 0°C° 0 mm 5 m/s 745 mmHg 82%
    11:00 +1°C° 0 mm 5 m/s 745 mmHg 79%
    12:00 +2°C° 0 mm 5 m/s 746 mmHg 77%
    13:00 +2°C° 0.1 mm 6 m/s 746 mmHg 77%
    14:00 +2°C° 0.1 mm 6 m/s 746 mmHg 78%
    15:00 +2°C° 0.1 mm 6 m/s 747 mmHg 79%
    16:00 +1°C° 0 mm 6 m/s 747 mmHg 82%
    17:00 0°C° 0 mm 5 m/s 747 mmHg 85%
    18:00 -1°C° 0 mm 5 m/s 747 mmHg 88%
    19:00 -1°C° 0 mm 4 m/s 748 mmHg 88%
    20:00 -2°C° 0 mm 4 m/s 748 mmHg 89%
    21:00 -2°C° 0 mm 4 m/s 748 mmHg 89%
    22:00 -3°C° 0 mm 4 m/s 748 mmHg 88%
    23:00 -2°C° 0 mm 3 m/s 747 mmHg 88%

    27 Februarie, Joi

    Timp Temperatura Precipitaţii Vânt Presiune Umiditate
    00:00 -2°C° 0 mm 3 m/s 747 mmHg 87%
    01:00 -2°C° 0 mm 3 m/s 746 mmHg 88%
    02:00 -2°C° 0 mm 2 m/s 746 mmHg 88%
    03:00 -2°C° 0 mm 2 m/s 745 mmHg 89%
    04:00 -2°C° 0 mm 2 m/s 745 mmHg 88%
    05:00 0°C° 0 mm 1 m/s 744 mmHg 88%
    06:00 0°C° 0 mm 1 m/s 744 mmHg 88%
    07:00 +1°C° 0 mm 1 m/s 743 mmHg 87%
    08:00 +1°C° 0 mm 1 m/s 742 mmHg 86%
    09:00 +2°C° 0 mm 1 m/s 742 mmHg 85%
    10:00 +2°C° 0.2 mm 1 m/s 741 mmHg 87%
    11:00 +2°C° 0.2 mm 2 m/s 740 mmHg 89%
    12:00 +1°C° 0.2 mm 3 m/s 740 mmHg 92%
    13:00 +1°C° 0.6 mm 3 m/s 739 mmHg 94%
    14:00 +1°C° 0.6 mm 3 m/s 738 mmHg 96%
    15:00 +1°C° 0.6 mm 3 m/s 737 mmHg 97%
    16:00 +1°C° 0.4 mm 3 m/s 737 mmHg 98%
    17:00 +1°C° 0.4 mm 3 m/s 737 mmHg 98%
    18:00 +1°C° 0.4 mm 3 m/s 737 mmHg 98%
    19:00 0°C° 0.2 mm 3 m/s 738 mmHg 96%
    20:00 -1°C° 0.2 mm 3 m/s 739 mmHg 95%
    21:00 -1°C° 0.2 mm 3 m/s 740 mmHg 93%
    22:00 -2°C° 0 mm 3 m/s 740 mmHg 93%
    23:00 -2°C° 0 mm 3 m/s 741 mmHg 93%
    Arată mai mult